owner,sensor,date,latitude,longitude,vertical_datum,sea_water_practical_salinity,qcFlag 
DISL,ioos:station:DISL:CATA:1,2017-08-01T00:00:00Z,30.3085,-88.1395,2.298,9.47,1111122 
DISL,ioos:station:DISL:CATA:1,2017-08-01T00:30:00Z,30.3085,-88.1395,2.312,9.39,1111122 
DISL,ioos:station:DISL:CATA:1,2017-08-01T01:00:00Z,30.3085,-88.1395,2.315,9.47,1111122 
DISL,ioos:station:DISL:CATA:1,2017-08-01T01:30:00Z,30.3085,-88.1395,2.328,9.54,1111122 
DISL,ioos:station:DISL:CATA:1,2017-08-01T02:00:00Z,30.3085,-88.1395,2.343,9.47,1111122 
DISL,ioos:station:DISL:CATA:1,2017-08-01T02:30:00Z,30.3085,-88.1395,2.361,9.33,1111122 
DISL,ioos:station:DISL:CATA:1,2017-08-01T03:00:00Z,30.3085,-88.1395,2.356,9.46,1111122 
DISL,ioos:station:DISL:CATA:1,2017-08-01T03:30:00Z,30.3085,-88.1395,2.364,9.31,1111122 
DISL,ioos:station:DISL:CATA:1,2017-08-01T04:00:00Z,30.3085,-88.1395,2.373,9.29,1111122 
DISL,ioos:station:DISL:CATA:1,2017-08-01T04:30:00Z,30.3085,-88.1395,2.387,9.37,1111122 
DISL,ioos:station:DISL:CATA:1,2017-08-01T05:00:00Z,30.3085,-88.1395,2.423,9.07,1111122 
DISL,ioos:station:DISL:CATA:1,2017-08-01T05:30:00Z,30.3085,-88.1395,2.408,8.98,1111122 
DISL,ioos:station:DISL:CATA:1,2017-08-01T06:00:00Z,30.3085,-88.1395,2.424,9.25,1111122 
DISL,ioos:station:DISL:CATA:1,2017-08-01T06:30:00Z,30.3085,-88.1395,2.444,9.05,1111122 
DISL,ioos:station:DISL:CATA:1,2017-08-01T07:00:00Z,30.3085,-88.1395,2.466,9.1,1111122 
DISL,ioos:station:DISL:CATA:1,2017-08-01T07:30:00Z,30.3085,-88.1395,2.477,9.08,1111122 
DISL,ioos:station:DISL:CATA:1,2017-08-01T08:00:00Z,30.3085,-88.1395,2.491,9.14,1111122 
DISL,ioos:station:DISL:CATA:1,2017-08-01T08:30:00Z,30.3085,-88.1395,2.517,9.22,1111122 
DISL,ioos:station:DISL:CATA:1,2017-08-01T09:00:00Z,30.3085,-88.1395,2.536,9.36,1111122 
DISL,ioos:station:DISL:CATA:1,2017-08-01T09:30:00Z,30.3085,-88.1395,2.552,9.5,1111122 
DISL,ioos:station:DISL:CATA:1,2017-08-01T10:00:00Z,30.3085,-88.1395,2.558,9.52,1111122 
DISL,ioos:station:DISL:CATA:1,2017-08-01T10:30:00Z,30.3085,-88.1395,2.56,9.4,1111122 
DISL,ioos:station:DISL:CATA:1,2017-08-01T11:00:00Z,30.3085,-88.1395,2.575,8.96,1111122 
DISL,ioos:station:DISL:CATA:1,2017-08-01T11:30:00Z,30.3085,-88.1395,2.581,9.37,1111122 
DISL,ioos:station:DISL:CATA:1,2017-08-01T12:00:00Z,30.3085,-88.1395,2.572,9.58,1111122 
DISL,ioos:station:DISL:CATA:1,2017-08-01T12:30:00Z,30.3085,-88.1395,2.58,9.64,1111122 
DISL,ioos:station:DISL:CATA:1,2017-08-01T13:00:00Z,30.3085,-88.1395,2.586,9.66,1111122 
DISL,ioos:station:DISL:CATA:1,2017-08-01T13:30:00Z,30.3085,-88.1395,2.565,9.04,1111122 
DISL,ioos:station:DISL:CATA:1,2017-08-01T14:00:00Z,30.3085,-88.1395,2.559,8.6,1111122 
DISL,ioos:station:DISL:CATA:1,2017-08-01T14:30:00Z,30.3085,-88.1395,2.553,8.63,1111122 
DISL,ioos:station:DISL:CATA:1,2017-08-01T15:00:00Z,30.3085,-88.1395,2.529,8.93,1111122 
DISL,ioos:station:DISL:CATA:1,2017-08-01T15:30:00Z,30.3085,-88.1395,2.502,9.03,1111122 
DISL,ioos:station:DISL:CATA:1,2017-08-01T16:00:00Z,30.3085,-88.1395,2.458,8.97,1111122 
DISL,ioos:station:DISL:CATA:1,2017-08-01T16:30:00Z,30.3085,-88.1395,2.426,9.04,1111122 
DISL,ioos:station:DISL:CATA:1,2017-08-01T17:00:00Z,30.3085,-88.1395,2.391,8.9,1111122 
DISL,ioos:station:DISL:CATA:1,2017-08-01T17:30:00Z,30.3085,-88.1395,2.364,8.87,1111122 
DISL,ioos:station:DISL:CATA:1,2017-08-01T18:00:00Z,30.3085,-88.1395,2.34,8.57,1111122 
DISL,ioos:station:DISL:CATA:1,2017-08-01T18:30:00Z,30.3085,-88.1395,2.316,8.46,1111122 
DISL,ioos:station:DISL:CATA:1,2017-08-01T19:00:00Z,30.3085,-88.1395,2.315,8.37,1111122 
DISL,ioos:station:DISL:CATA:1,2017-08-01T19:30:00Z,30.3085,-88.1395,2.305,8.27,1111122 
DISL,ioos:station:DISL:CATA:1,2017-08-01T20:00:00Z,30.3085,-88.1395,2.285,8.12,1111122 
DISL,ioos:station:DISL:CATA:1,2017-08-01T20:30:00Z,30.3085,-88.1395,2.281,7.95,1111122 
DISL,ioos:station:DISL:CATA:1,2017-08-01T21:00:00Z,30.3085,-88.1395,2.275,7.7,1111122 
DISL,ioos:station:DISL:CATA:1,2017-08-01T21:30:00Z,30.3085,-88.1395,2.258,7.66,1111122 
DISL,ioos:station:DISL:CATA:1,2017-08-01T22:00:00Z,30.3085,-88.1395,2.242,7.52,1111122 
DISL,ioos:station:DISL:CATA:1,2017-08-01T22:30:00Z,30.3085,-88.1395,2.246,7.39,1111122 
DISL,ioos:station:DISL:CATA:1,2017-08-01T23:00:00Z,30.3085,-88.1395,2.257,7.34,1111122 
DISL,ioos:station:DISL:CATA:1,2017-08-01T23:30:00Z,30.3085,-88.1395,2.257,7.18,1111122 
DISL,ioos:station:DISL:CATA:1,2017-08-02T00:00:00Z,30.3085,-88.1395,2.26,7.32,1111122 
DISL,ioos:station:DISL:CATA:1,2017-08-02T00:30:00Z,30.3085,-88.1395,2.264,7.26,1111122 
DISL,ioos:station:DISL:CATA:1,2017-08-02T01:00:00Z,30.3085,-88.1395,2.275,7.2,1111122 
DISL,ioos:station:DISL:CATA:1,2017-08-02T01:30:00Z,30.3085,-88.1395,2.272,7.25,1111122 
DISL,ioos:station:DISL:CATA:1,2017-08-02T02:00:00Z,30.3085,-88.1395,2.286,7.34,1111122 
DISL,ioos:station:DISL:CATA:1,2017-08-02T02:30:00Z,30.3085,-88.1395,2.302,7.33,1111122 
DISL,ioos:station:DISL:CATA:1,2017-08-02T03:00:00Z,30.3085,-88.1395,2.325,7.22,1111122 
DISL,ioos:station:DISL:CATA:1,2017-08-02T03:30:00Z,30.3085,-88.1395,2.334,7.26,1111122 
DISL,ioos:station:DISL:CATA:1,2017-08-02T04:00:00Z,30.3085,-88.1395,2.348,7.3,1111122 
DISL,ioos:station:DISL:CATA:1,2017-08-02T04:30:00Z,30.3085,-88.1395,2.365,7.35,1111122 
DISL,ioos:station:DISL:CATA:1,2017-08-02T05:00:00Z,30.3085,-88.1395,2.381,7.36,1111122 
DISL,ioos:station:DISL:CATA:1,2017-08-02T05:30:00Z,30.3085,-88.1395,2.408,7.28,1111122 
DISL,ioos:station:DISL:CATA:1,2017-08-02T06:00:00Z,30.3085,-88.1395,2.425,7.32,1111122 
DISL,ioos:station:DISL:CATA:1,2017-08-02T06:30:00Z,30.3085,-88.1395,2.447,7.3,1111122 
DISL,ioos:station:DISL:CATA:1,2017-08-02T07:00:00Z,30.3085,-88.1395,2.464,7.51,1111122 
DISL,ioos:station:DISL:CATA:1,2017-08-02T07:30:00Z,30.3085,-88.1395,2.495,7.54,1111122 
DISL,ioos:station:DISL:CATA:1,2017-08-02T08:00:00Z,30.3085,-88.1395,2.517,7.56,1111122 
DISL,ioos:station:DISL:CATA:1,2017-08-02T08:30:00Z,30.3085,-88.1395,2.53,8.7,1111122 
DISL,ioos:station:DISL:CATA:1,2017-08-02T09:00:00Z,30.3085,-88.1395,2.564,10.34,1111122 
DISL,ioos:station:DISL:CATA:1,2017-08-02T09:30:00Z,30.3085,-88.1395,2.569,11.64,1111122 
DISL,ioos:station:DISL:CATA:1,2017-08-02T10:00:00Z,30.3085,-88.1395,2.582,13.28,1111122 
DISL,ioos:station:DISL:CATA:1,2017-08-02T10:30:00Z,30.3085,-88.1395,2.592,14.05,1111122 
DISL,ioos:station:DISL:CATA:1,2017-08-02T11:00:00Z,30.3085,-88.1395,2.591,15.49,1111122 
DISL,ioos:station:DISL:CATA:1,2017-08-02T11:30:00Z,30.3085,-88.1395,2.604,15.89,1111122 
DISL,ioos:station:DISL:CATA:1,2017-08-02T12:00:00Z,30.3085,-88.1395,2.596,16.66,1111122 
DISL,ioos:station:DISL:CATA:1,2017-08-02T12:30:00Z,30.3085,-88.1395,2.615,17.27,1111122 
DISL,ioos:station:DISL:CATA:1,2017-08-02T13:00:00Z,30.3085,-88.1395,2.608,17.67,1111122 
DISL,ioos:station:DISL:CATA:1,2017-08-02T13:30:00Z,30.3085,-88.1395,2.582,17.87,1111122 
DISL,ioos:station:DISL:CATA:1,2017-08-02T14:00:00Z,30.3085,-88.1395,2.558,18.0,1111122 
DISL,ioos:station:DISL:CATA:1,2017-08-02T14:30:00Z,30.3085,-88.1395,2.547,17.98,1111122 
DISL,ioos:station:DISL:CATA:1,2017-08-02T15:00:00Z,30.3085,-88.1395,2.533,18.05,1111122 
DISL,ioos:station:DISL:CATA:1,2017-08-02T15:30:00Z,30.3085,-88.1395,2.507,17.83,1111122 
DISL,ioos:station:DISL:CATA:1,2017-08-02T16:00:00Z,30.3085,-88.1395,2.491,10.07,1111122 
DISL,ioos:station:DISL:CATA:1,2017-08-02T16:30:00Z,30.3085,-88.1395,2.467,7.93,1111122 
DISL,ioos:station:DISL:CATA:1,2017-08-02T17:00:00Z,30.3085,-88.1395,2.447,7.34,1111122 
DISL,ioos:station:DISL:CATA:1,2017-08-02T17:30:00Z,30.3085,-88.1395,2.407,7.32,1111122 
DISL,ioos:station:DISL:CATA:1,2017-08-02T18:00:00Z,30.3085,-88.1395,2.369,7.22,1111122 
DISL,ioos:station:DISL:CATA:1,2017-08-02T18:30:00Z,30.3085,-88.1395,2.346,7.28,1111122 
DISL,ioos:station:DISL:CATA:1,2017-08-02T19:00:00Z,30.3085,-88.1395,2.321,7.24,1111122 
DISL,ioos:station:DISL:CATA:1,2017-08-02T19:30:00Z,30.3085,-88.1395,2.292,7.29,1111122 
DISL,ioos:station:DISL:CATA:1,2017-08-02T20:00:00Z,30.3085,-88.1395,2.265,7.2,1111122 
DISL,ioos:station:DISL:CATA:1,2017-08-02T20:30:00Z,30.3085,-88.1395,2.247,7.16,1111122 
DISL,ioos:station:DISL:CATA:1,2017-08-02T21:00:00Z,30.3085,-88.1395,2.246,7.02,1111122 
DISL,ioos:station:DISL:CATA:1,2017-08-02T21:30:00Z,30.3085,-88.1395,2.246,6.93,1111122 
DISL,ioos:station:DISL:CATA:1,2017-08-02T22:00:00Z,30.3085,-88.1395,2.212,6.83,1111122 
DISL,ioos:station:DISL:CATA:1,2017-08-02T22:30:00Z,30.3085,-88.1395,2.2,6.78,1111122 
DISL,ioos:station:DISL:CATA:1,2017-08-02T23:00:00Z,30.3085,-88.1395,2.203,6.73,1111122 
DISL,ioos:station:DISL:CATA:1,2017-08-02T23:30:00Z,30.3085,-88.1395,2.218,6.83,1111122 
DISL,ioos:station:DISL:CATA:1,2017-08-03T00:00:00Z,30.3085,-88.1395,2.226,6.77,1111122 
DISL,ioos:station:DISL:CATA:1,2017-08-03T00:30:00Z,30.3085,-88.1395,2.249,6.82,1111122 
DISL,ioos:station:DISL:CATA:1,2017-08-03T01:00:00Z,30.3085,-88.1395,2.269,6.84,1111122 
DISL,ioos:station:DISL:CATA:1,2017-08-03T01:30:00Z,30.3085,-88.1395,2.264,6.84,1111122 
DISL,ioos:station:DISL:CATA:1,2017-08-03T02:00:00Z,30.3085,-88.1395,2.287,6.76,1111122 
DISL,ioos:station:DISL:CATA:1,2017-08-03T02:30:00Z,30.3085,-88.1395,2.312,6.81,1111122 
DISL,ioos:station:DISL:CATA:1,2017-08-03T03:00:00Z,30.3085,-88.1395,2.323,6.96,1111122 
DISL,ioos:station:DISL:CATA:1,2017-08-03T03:30:00Z,30.3085,-88.1395,2.338,7.16,1111122 
DISL,ioos:station:DISL:CATA:1,2017-08-03T04:00:00Z,30.3085,-88.1395,2.355,7.37,1111122 
DISL,ioos:station:DISL:CATA:1,2017-08-03T04:30:00Z,30.3085,-88.1395,2.389,7.4,1111122 
DISL,ioos:station:DISL:CATA:1,2017-08-03T05:00:00Z,30.3085,-88.1395,2.406,7.44,1111122 
DISL,ioos:station:DISL:CATA:1,2017-08-03T05:30:00Z,30.3085,-88.1395,2.421,7.44,1111122 
DISL,ioos:station:DISL:CATA:1,2017-08-03T06:00:00Z,30.3085,-88.1395,2.448,7.59,1111122 
DISL,ioos:station:DISL:CATA:1,2017-08-03T06:30:00Z,30.3085,-88.1395,2.465,7.58,1111122 
DISL,ioos:station:DISL:CATA:1,2017-08-03T07:00:00Z,30.3085,-88.1395,2.483,7.58,1111122 
DISL,ioos:station:DISL:CATA:1,2017-08-03T07:30:00Z,30.3085,-88.1395,2.481,10.48,1111122 
DISL,ioos:station:DISL:CATA:1,2017-08-03T08:00:00Z,30.3085,-88.1395,2.496,13.23,1111122 
DISL,ioos:station:DISL:CATA:1,2017-08-03T08:30:00Z,30.3085,-88.1395,2.505,14.49,1111122 
DISL,ioos:station:DISL:CATA:1,2017-08-03T09:00:00Z,30.3085,-88.1395,2.518,15.04,1111122 
DISL,ioos:station:DISL:CATA:1,2017-08-03T09:30:00Z,30.3085,-88.1395,2.555,15.76,1111122 
DISL,ioos:station:DISL:CATA:1,2017-08-03T10:00:00Z,30.3085,-88.1395,2.581,16.27,1111122 
DISL,ioos:station:DISL:CATA:1,2017-08-03T10:30:00Z,30.3085,-88.1395,2.595,16.48,1111122 
DISL,ioos:station:DISL:CATA:1,2017-08-03T11:00:00Z,30.3085,-88.1395,2.611,16.75,1111122 
DISL,ioos:station:DISL:CATA:1,2017-08-03T11:30:00Z,30.3085,-88.1395,2.61,16.85,1111122 
DISL,ioos:station:DISL:CATA:1,2017-08-03T12:00:00Z,30.3085,-88.1395,2.614,16.81,1111122 
DISL,ioos:station:DISL:CATA:1,2017-08-03T12:30:00Z,30.3085,-88.1395,2.612,16.95,1111122 
DISL,ioos:station:DISL:CATA:1,2017-08-03T13:00:00Z,30.3085,-88.1395,2.601,17.03,1111122 
DISL,ioos:station:DISL:CATA:1,2017-08-03T13:30:00Z,30.3085,-88.1395,2.589,17.02,1111122 
DISL,ioos:station:DISL:CATA:1,2017-08-03T14:00:00Z,30.3085,-88.1395,2.583,17.07,1111122 
DISL,ioos:station:DISL:CATA:1,2017-08-03T14:30:00Z,30.3085,-88.1395,2.568,17.05,1111122 
DISL,ioos:station:DISL:CATA:1,2017-08-03T15:00:00Z,30.3085,-88.1395,2.573,16.53,1111122 
DISL,ioos:station:DISL:CATA:1,2017-08-03T15:30:00Z,30.3085,-88.1395,2.574,9.92,1111122 
DISL,ioos:station:DISL:CATA:1,2017-08-03T16:00:00Z,30.3085,-88.1395,2.546,7.34,1111122 
DISL,ioos:station:DISL:CATA:1,2017-08-03T16:30:00Z,30.3085,-88.1395,2.545,7.14,1111122 
DISL,ioos:station:DISL:CATA:1,2017-08-03T17:00:00Z,30.3085,-88.1395,2.511,7.17,1111122 
DISL,ioos:station:DISL:CATA:1,2017-08-03T17:30:00Z,30.3085,-88.1395,2.485,7.19,1111122 
DISL,ioos:station:DISL:CATA:1,2017-08-03T18:00:00Z,30.3085,-88.1395,2.458,7.21,1111122 
DISL,ioos:station:DISL:CATA:1,2017-08-03T18:30:00Z,30.3085,-88.1395,2.407,7.2,1111122 
DISL,ioos:station:DISL:CATA:1,2017-08-03T19:00:00Z,30.3085,-88.1395,2.356,7.16,1111122 
DISL,ioos:station:DISL:CATA:1,2017-08-03T19:30:00Z,30.3085,-88.1395,2.336,7.15,1111122 
DISL,ioos:station:DISL:CATA:1,2017-08-03T20:00:00Z,30.3085,-88.1395,2.296,7.06,1111122 
DISL,ioos:station:DISL:CATA:1,2017-08-03T20:30:00Z,30.3085,-88.1395,2.266,7.02,1111122 
DISL,ioos:station:DISL:CATA:1,2017-08-03T21:00:00Z,30.3085,-88.1395,2.26,6.98,1111122 
DISL,ioos:station:DISL:CATA:1,2017-08-03T21:30:00Z,30.3085,-88.1395,2.228,6.97,1111122 
DISL,ioos:station:DISL:CATA:1,2017-08-03T22:00:00Z,30.3085,-88.1395,2.199,6.95,1111122 
DISL,ioos:station:DISL:CATA:1,2017-08-03T22:30:00Z,30.3085,-88.1395,2.206,6.81,1111122 
DISL,ioos:station:DISL:CATA:1,2017-08-03T23:00:00Z,30.3085,-88.1395,2.205,6.71,1111122 
DISL,ioos:station:DISL:CATA:1,2017-08-03T23:30:00Z,30.3085,-88.1395,2.206,6.6,1111122 
DISL,ioos:station:DISL:CATA:1,2017-08-04T00:00:00Z,30.3085,-88.1395,2.218,6.49,1111122 
DISL,ioos:station:DISL:CATA:1,2017-08-04T00:30:00Z,30.3085,-88.1395,2.199,6.64,1111122 
DISL,ioos:station:DISL:CATA:1,2017-08-04T01:00:00Z,30.3085,-88.1395,2.195,6.59,1111122 
DISL,ioos:station:DISL:CATA:1,2017-08-04T01:30:00Z,30.3085,-88.1395,2.198,6.56,1111122 
DISL,ioos:station:DISL:CATA:1,2017-08-04T02:00:00Z,30.3085,-88.1395,2.204,6.64,1111122 
DISL,ioos:station:DISL:CATA:1,2017-08-04T02:30:00Z,30.3085,-88.1395,2.228,6.68,1111122 
DISL,ioos:station:DISL:CATA:1,2017-08-04T03:00:00Z,30.3085,-88.1395,2.251,6.78,1111122 
DISL,ioos:station:DISL:CATA:1,2017-08-04T03:30:00Z,30.3085,-88.1395,2.278,6.87,1111122 
DISL,ioos:station:DISL:CATA:1,2017-08-04T04:00:00Z,30.3085,-88.1395,2.304,6.79,1111122 
DISL,ioos:station:DISL:CATA:1,2017-08-04T04:30:00Z,30.3085,-88.1395,2.334,6.5,1111122 
DISL,ioos:station:DISL:CATA:1,2017-08-04T05:00:00Z,30.3085,-88.1395,2.355,6.53,1111122 
DISL,ioos:station:DISL:CATA:1,2017-08-04T05:30:00Z,30.3085,-88.1395,2.369,6.54,1111122 
DISL,ioos:station:DISL:CATA:1,2017-08-04T06:00:00Z,30.3085,-88.1395,2.398,6.9,1111122 
DISL,ioos:station:DISL:CATA:1,2017-08-04T06:30:00Z,30.3085,-88.1395,2.422,7.32,1111122 
DISL,ioos:station:DISL:CATA:1,2017-08-04T07:00:00Z,30.3085,-88.1395,2.432,7.46,1111122 
DISL,ioos:station:DISL:CATA:1,2017-08-04T07:30:00Z,30.3085,-88.1395,2.467,7.82,1111122 
DISL,ioos:station:DISL:CATA:1,2017-08-04T08:00:00Z,30.3085,-88.1395,2.491,8.04,1111122 
DISL,ioos:station:DISL:CATA:1,2017-08-04T08:30:00Z,30.3085,-88.1395,2.541,8.14,1111122 
DISL,ioos:station:DISL:CATA:1,2017-08-04T09:00:00Z,30.3085,-88.1395,2.569,8.16,1111122 
DISL,ioos:station:DISL:CATA:1,2017-08-04T09:30:00Z,30.3085,-88.1395,2.595,8.1,1111122 
DISL,ioos:station:DISL:CATA:1,2017-08-04T10:00:00Z,30.3085,-88.1395,2.586,8.28,1111122 
DISL,ioos:station:DISL:CATA:1,2017-08-04T10:30:00Z,30.3085,-88.1395,2.622,8.37,1111122 
DISL,ioos:station:DISL:CATA:1,2017-08-04T11:00:00Z,30.3085,-88.1395,2.671,8.49,1111122 
DISL,ioos:station:DISL:CATA:1,2017-08-04T11:30:00Z,30.3085,-88.1395,2.681,8.64,1111122 
DISL,ioos:station:DISL:CATA:1,2017-08-04T12:00:00Z,30.3085,-88.1395,2.675,8.79,1111122 
DISL,ioos:station:DISL:CATA:1,2017-08-04T12:30:00Z,30.3085,-88.1395,2.682,9.42,1111122 
DISL,ioos:station:DISL:CATA:1,2017-08-04T13:00:00Z,30.3085,-88.1395,2.685,9.96,1111122 
DISL,ioos:station:DISL:CATA:1,2017-08-04T13:30:00Z,30.3085,-88.1395,2.66,10.41,1111122 
DISL,ioos:station:DISL:CATA:1,2017-08-04T14:00:00Z,30.3085,-88.1395,2.659,11.02,1111122 
DISL,ioos:station:DISL:CATA:1,2017-08-04T14:30:00Z,30.3085,-88.1395,2.647,11.3,1111122 
DISL,ioos:station:DISL:CATA:1,2017-08-04T15:00:00Z,30.3085,-88.1395,2.646,11.35,1111122 
DISL,ioos:station:DISL:CATA:1,2017-08-04T15:30:00Z,30.3085,-88.1395,2.675,11.48,1111122 
DISL,ioos:station:DISL:CATA:1,2017-08-04T16:00:00Z,30.3085,-88.1395,2.662,9.39,1111122 
DISL,ioos:station:DISL:CATA:1,2017-08-04T16:30:00Z,30.3085,-88.1395,2.58,9.0,1111122 
DISL,ioos:station:DISL:CATA:1,2017-08-04T17:00:00Z,30.3085,-88.1395,2.582,9.13,1111122 
DISL,ioos:station:DISL:CATA:1,2017-08-04T17:30:00Z,30.3085,-88.1395,2.545,9.21,1111122 
DISL,ioos:station:DISL:CATA:1,2017-08-04T18:00:00Z,30.3085,-88.1395,2.519,9.85,1111122 
DISL,ioos:station:DISL:CATA:1,2017-08-04T18:30:00Z,30.3085,-88.1395,2.509,9.94,1111122 
DISL,ioos:station:DISL:CATA:1,2017-08-04T19:00:00Z,30.3085,-88.1395,2.444,9.99,1111122 
DISL,ioos:station:DISL:CATA:1,2017-08-04T19:30:00Z,30.3085,-88.1395,2.395,9.93,1111122 
DISL,ioos:station:DISL:CATA:1,2017-08-04T20:00:00Z,30.3085,-88.1395,2.353,9.81,1111122 
DISL,ioos:station:DISL:CATA:1,2017-08-04T20:30:00Z,30.3085,-88.1395,2.312,9.17,1111122 
DISL,ioos:station:DISL:CATA:1,2017-08-04T21:00:00Z,30.3085,-88.1395,2.283,8.58,1111122 
DISL,ioos:station:DISL:CATA:1,2017-08-04T21:30:00Z,30.3085,-88.1395,2.281,8.4,1111122 
DISL,ioos:station:DISL:CATA:1,2017-08-04T22:00:00Z,30.3085,-88.1395,2.278,8.6,1111122 
DISL,ioos:station:DISL:CATA:1,2017-08-04T22:30:00Z,30.3085,-88.1395,2.281,8.68,1111122 
DISL,ioos:station:DISL:CATA:1,2017-08-04T23:00:00Z,30.3085,-88.1395,2.296,7.64,1111122 
DISL,ioos:station:DISL:CATA:1,2017-08-04T23:30:00Z,30.3085,-88.1395,2.302,7.67,1111122 
DISL,ioos:station:DISL:CATA:1,2017-08-05T00:00:00Z,30.3085,-88.1395,2.285,7.7,1111122 
DISL,ioos:station:DISL:CATA:1,2017-08-05T00:30:00Z,30.3085,-88.1395,2.287,8.0,1111122 
DISL,ioos:station:DISL:CATA:1,2017-08-05T01:00:00Z,30.3085,-88.1395,2.3,8.45,1111122 
DISL,ioos:station:DISL:CATA:1,2017-08-05T01:30:00Z,30.3085,-88.1395,2.269,9.63,1111122 
DISL,ioos:station:DISL:CATA:1,2017-08-05T02:00:00Z,30.3085,-88.1395,2.253,9.37,1111122 
DISL,ioos:station:DISL:CATA:1,2017-08-05T02:30:00Z,30.3085,-88.1395,2.234,9.76,1111122 
DISL,ioos:station:DISL:CATA:1,2017-08-05T03:00:00Z,30.3085,-88.1395,2.279,9.96,1111122 
DISL,ioos:station:DISL:CATA:1,2017-08-05T03:30:00Z,30.3085,-88.1395,2.299,10.04,1111122 
DISL,ioos:station:DISL:CATA:1,2017-08-05T04:00:00Z,30.3085,-88.1395,2.292,10.09,1111122 
DISL,ioos:station:DISL:CATA:1,2017-08-05T04:30:00Z,30.3085,-88.1395,2.303,10.1,1111122 
DISL,ioos:station:DISL:CATA:1,2017-08-05T05:00:00Z,30.3085,-88.1395,2.317,9.72,1111122 
DISL,ioos:station:DISL:CATA:1,2017-08-05T05:30:00Z,30.3085,-88.1395,2.35,9.53,1111122 
DISL,ioos:station:DISL:CATA:1,2017-08-05T06:00:00Z,30.3085,-88.1395,2.362,9.18,1111122 
DISL,ioos:station:DISL:CATA:1,2017-08-05T06:30:00Z,30.3085,-88.1395,2.374,9.3,1111122 
DISL,ioos:station:DISL:CATA:1,2017-08-05T07:00:00Z,30.3085,-88.1395,2.393,9.24,1111122 
DISL,ioos:station:DISL:CATA:1,2017-08-05T07:30:00Z,30.3085,-88.1395,2.413,9.46,1111122 
DISL,ioos:station:DISL:CATA:1,2017-08-05T08:00:00Z,30.3085,-88.1395,2.422,9.48,1111122 
DISL,ioos:station:DISL:CATA:1,2017-08-05T08:30:00Z,30.3085,-88.1395,2.435,10.03,1111122 
DISL,ioos:station:DISL:CATA:1,2017-08-05T09:00:00Z,30.3085,-88.1395,2.454,10.25,1111122 
DISL,ioos:station:DISL:CATA:1,2017-08-05T09:30:00Z,30.3085,-88.1395,2.469,10.19,1111122 
DISL,ioos:station:DISL:CATA:1,2017-08-05T10:00:00Z,30.3085,-88.1395,2.492,10.21,1111122 
DISL,ioos:station:DISL:CATA:1,2017-08-05T10:30:00Z,30.3085,-88.1395,2.514,10.23,1111122 
DISL,ioos:station:DISL:CATA:1,2017-08-05T11:00:00Z,30.3085,-88.1395,2.544,10.51,1111122 
DISL,ioos:station:DISL:CATA:1,2017-08-05T11:30:00Z,30.3085,-88.1395,2.567,10.86,1111122 
DISL,ioos:station:DISL:CATA:1,2017-08-05T12:00:00Z,30.3085,-88.1395,2.581,11.53,1111122 
DISL,ioos:station:DISL:CATA:1,2017-08-05T12:30:00Z,30.3085,-88.1395,2.598,11.66,1111122 
DISL,ioos:station:DISL:CATA:1,2017-08-05T13:00:00Z,30.3085,-88.1395,2.624,11.37,1111122 
DISL,ioos:station:DISL:CATA:1,2017-08-05T13:30:00Z,30.3085,-88.1395,2.655,11.59,1111122 
DISL,ioos:station:DISL:CATA:1,2017-08-05T14:00:00Z,30.3085,-88.1395,2.652,11.63,1111122 
DISL,ioos:station:DISL:CATA:1,2017-08-05T14:30:00Z,30.3085,-88.1395,2.656,11.46,1111122 
DISL,ioos:station:DISL:CATA:1,2017-08-05T15:00:00Z,30.3085,-88.1395,2.662,11.56,1111122 
DISL,ioos:station:DISL:CATA:1,2017-08-05T15:30:00Z,30.3085,-88.1395,2.646,11.67,1111122 
DISL,ioos:station:DISL:CATA:1,2017-08-05T16:00:00Z,30.3085,-88.1395,2.627,11.7,1111122 
DISL,ioos:station:DISL:CATA:1,2017-08-05T16:30:00Z,30.3085,-88.1395,2.614,11.73,1111122 
DISL,ioos:station:DISL:CATA:1,2017-08-05T17:00:00Z,30.3085,-88.1395,2.583,11.82,1111122 
DISL,ioos:station:DISL:CATA:1,2017-08-05T17:30:00Z,30.3085,-88.1395,2.552,11.77,1111122 
DISL,ioos:station:DISL:CATA:1,2017-08-05T18:00:00Z,30.3085,-88.1395,2.53,11.81,1111122 
DISL,ioos:station:DISL:CATA:1,2017-08-05T18:30:00Z,30.3085,-88.1395,2.507,9.73,1111122 
DISL,ioos:station:DISL:CATA:1,2017-08-05T19:00:00Z,30.3085,-88.1395,2.469,7.2,1111122 
DISL,ioos:station:DISL:CATA:1,2017-08-05T19:30:00Z,30.3085,-88.1395,2.439,5.99,1111122 
DISL,ioos:station:DISL:CATA:1,2017-08-05T20:00:00Z,30.3085,-88.1395,2.39,5.91,1111122 
DISL,ioos:station:DISL:CATA:1,2017-08-05T20:30:00Z,30.3085,-88.1395,2.345,5.86,1111122 
DISL,ioos:station:DISL:CATA:1,2017-08-05T21:00:00Z,30.3085,-88.1395,2.303,5.76,1111122 
DISL,ioos:station:DISL:CATA:1,2017-08-05T21:30:00Z,30.3085,-88.1395,2.274,5.71,1111122 
DISL,ioos:station:DISL:CATA:1,2017-08-05T22:00:00Z,30.3085,-88.1395,2.239,5.67,1111122 
DISL,ioos:station:DISL:CATA:1,2017-08-05T22:30:00Z,30.3085,-88.1395,2.216,5.66,1111122 
DISL,ioos:station:DISL:CATA:1,2017-08-05T23:00:00Z,30.3085,-88.1395,2.187,5.67,1111122 
DISL,ioos:station:DISL:CATA:1,2017-08-05T23:30:00Z,30.3085,-88.1395,2.192,5.7,1111122 
DISL,ioos:station:DISL:CATA:1,2017-08-06T00:00:00Z,30.3085,-88.1395,2.177,5.89,1111122 
DISL,ioos:station:DISL:CATA:1,2017-08-06T00:30:00Z,30.3085,-88.1395,2.174,6.22,1111122 
DISL,ioos:station:DISL:CATA:1,2017-08-06T01:00:00Z,30.3085,-88.1395,2.181,6.59,1111122 
DISL,ioos:station:DISL:CATA:1,2017-08-06T01:30:00Z,30.3085,-88.1395,2.191,7.01,1111122 
DISL,ioos:station:DISL:CATA:1,2017-08-06T02:00:00Z,30.3085,-88.1395,2.191,7.41,1111122 
DISL,ioos:station:DISL:CATA:1,2017-08-06T02:30:00Z,30.3085,-88.1395,2.194,7.23,1111122 
DISL,ioos:station:DISL:CATA:1,2017-08-06T03:00:00Z,30.3085,-88.1395,2.195,6.99,1111122 
DISL,ioos:station:DISL:CATA:1,2017-08-06T03:30:00Z,30.3085,-88.1395,2.201,6.95,1111122 
DISL,ioos:station:DISL:CATA:1,2017-08-06T04:00:00Z,30.3085,-88.1395,2.211,6.97,1111122 
DISL,ioos:station:DISL:CATA:1,2017-08-06T04:30:00Z,30.3085,-88.1395,2.23,6.95,1111122 
DISL,ioos:station:DISL:CATA:1,2017-08-06T05:00:00Z,30.3085,-88.1395,2.257,6.5,1111122 
DISL,ioos:station:DISL:CATA:1,2017-08-06T05:30:00Z,30.3085,-88.1395,2.283,5.86,1111122 
DISL,ioos:station:DISL:CATA:1,2017-08-06T06:00:00Z,30.3085,-88.1395,2.309,5.63,1111122 
DISL,ioos:station:DISL:CATA:1,2017-08-06T06:30:00Z,30.3085,-88.1395,2.322,5.72,1111122 
DISL,ioos:station:DISL:CATA:1,2017-08-06T07:00:00Z,30.3085,-88.1395,2.34,5.85,1111122 
DISL,ioos:station:DISL:CATA:1,2017-08-06T07:30:00Z,30.3085,-88.1395,2.37,6.16,1111122 
DISL,ioos:station:DISL:CATA:1,2017-08-06T08:00:00Z,30.3085,-88.1395,2.401,6.24,1111122 
DISL,ioos:station:DISL:CATA:1,2017-08-06T08:30:00Z,30.3085,-88.1395,2.412,6.25,1111122 
DISL,ioos:station:DISL:CATA:1,2017-08-06T09:00:00Z,30.3085,-88.1395,2.439,6.22,1111122 
DISL,ioos:station:DISL:CATA:1,2017-08-06T09:30:00Z,30.3085,-88.1395,2.476,6.33,1111122 
DISL,ioos:station:DISL:CATA:1,2017-08-06T10:00:00Z,30.3085,-88.1395,2.505,6.5,1111122 
DISL,ioos:station:DISL:CATA:1,2017-08-06T10:30:00Z,30.3085,-88.1395,2.525,6.63,1111122 
DISL,ioos:station:DISL:CATA:1,2017-08-06T11:00:00Z,30.3085,-88.1395,2.558,6.85,1111122 
DISL,ioos:station:DISL:CATA:1,2017-08-06T11:30:00Z,30.3085,-88.1395,2.584,7.39,1111122 
DISL,ioos:station:DISL:CATA:1,2017-08-06T12:00:00Z,30.3085,-88.1395,2.614,7.45,1111122 
DISL,ioos:station:DISL:CATA:1,2017-08-06T12:30:00Z,30.3085,-88.1395,2.632,7.55,1111122 
DISL,ioos:station:DISL:CATA:1,2017-08-06T13:00:00Z,30.3085,-88.1395,2.663,7.62,1111122 
DISL,ioos:station:DISL:CATA:1,2017-08-06T13:30:00Z,30.3085,-88.1395,2.68,7.88,1111122 
DISL,ioos:station:DISL:CATA:1,2017-08-06T14:00:00Z,30.3085,-88.1395,2.691,7.91,1111122 
DISL,ioos:station:DISL:CATA:1,2017-08-06T14:30:00Z,30.3085,-88.1395,2.691,8.03,1111122 
DISL,ioos:station:DISL:CATA:1,2017-08-06T15:00:00Z,30.3085,-88.1395,2.69,8.17,1111122 